| time (UTC) | temp F | wind direction | speed MPH | gust MPH | rain 1hr in | rain 24hr in | rain mn in | humidity % | barometer mb |
| 20260507173731 | 60 | 355 | 1.0 | 5.0 | 0.00 | 0.00 | 0.00 | 58 | 1008.7 |
| 20260507173457 | 60 | 347 | 1.0 | 5.0 | 0.00 | 0.00 | 0.00 | 58 | 1008.7 |
| 20260507172731 | 60 | 19 | 1.0 | 4.0 | 0.00 | 0.00 | 0.00 | 56 | 1008.7 |
| 20260507172230 | 60 | 53 | 1.0 | 6.0 | 0.00 | 0.00 | 0.00 | 57 | 1008.7 |
| 20260507171730 | 60 | 10 | 1.0 | 6.0 | 0.00 | 0.00 | 0.00 | 56 | 1008.7 |
| 20260507171231 | 61 | 351 | 1.0 | 3.0 | 0.00 | 0.00 | 0.00 | 55 | 1008.6 |
| 20260507170955 | 61 | 11 | 0.0 | 2.0 | 0.00 | 0.00 | 0.00 | 55 | 1008.6 |
| 20260507170231 | 61 | 23 | 0.0 | 2.0 | 0.00 | 0.00 | 0.00 | 54 | 1008.6 |
| 20260507165730 | 61 | 92 | 0.0 | 1.0 | 0.00 | 0.00 | 0.00 | 53 | 1008.6 |
| 20260507165230 | 61 | 91 | 0.0 | 2.0 | 0.00 | 0.00 | 0.00 | 53 | 1008.6 |
| 20260507164730 | 61 | 112 | 0.0 | 2.0 | 0.00 | 0.00 | 0.00 | 52 | 1008.6 |
| 20260507164458 | 61 | 355 | 0.0 | 2.0 | 0.00 | 0.00 | 0.00 | 53 | 1008.7 |
| 20260507163731 | 61 | 49 | 0.0 | 2.0 | 0.00 | 0.00 | 0.00 | 52 | 1008.7 |
| 20260507163459 | 62 | 68 | 0.0 | 2.0 | 0.00 | 0.00 | 0.00 | 50 | 1008.7 |
| 20260507162730 | 62 | 114 | 0.0 | 1.0 | 0.00 | 0.00 | 0.00 | 53 | 1008.7 |
| 20260507162454 | 62 | 177 | 0.0 | 3.0 | 0.00 | 0.00 | 0.00 | 52 | 1008.7 |
| 20260507161729 | 62 | 229 | 0.0 | 3.0 | 0.00 | 0.00 | 0.00 | 53 | 1008.7 |
| 20260507161231 | 62 | 84 | 0.0 | 2.0 | 0.00 | 0.00 | 0.00 | 53 | 1008.7 |
| 20260507160731 | 62 | 199 | 1.0 | 3.0 | 0.00 | 0.00 | 0.00 | 52 | 1008.7 |
| 20260507160231 | 62 | 240 | 0.0 | 3.0 | 0.00 | 0.00 | 0.00 | 55 | 1008.7 |
| 20260507155730 | 62 | 213 | 0.0 | 1.0 | 0.00 | 0.00 | 0.00 | 54 | 1008.7 |
| 20260507155230 | 61 | 114 | 0.0 | 2.0 | 0.00 | 0.00 | 0.00 | 53 | 1008.7 |
| 20260507154730 | 62 | 44 | 1.0 | 7.0 | 0.00 | 0.00 | 0.00 | 53 | 1008.7 |
| 20260507154500 | 62 | 84 | 1.0 | 7.0 | 0.00 | 0.00 | 0.00 | 53 | 1008.7 |
| 20260507153731 | 62 | 115 | 1.0 | 7.0 | 0.00 | 0.00 | 0.00 | 52 | 1008.7 |
| 20260507153501 | 62 | 66 | 0.0 | 4.0 | 0.00 | 0.00 | 0.00 | 51 | 1008.7 |
| 20260507152730 | 62 | 328 | 0.0 | 2.0 | 0.00 | 0.00 | 0.00 | 50 | 1008.7 |
| 20260507152230 | 62 | 101 | 1.0 | 2.0 | 0.00 | 0.00 | 0.00 | 51 | 1008.7 |
| 20260507151730 | 62 | 35 | 1.0 | 3.0 | 0.00 | 0.00 | 0.00 | 50 | 1008.7 |
| 20260507151232 | 63 | 250 | 1.0 | 3.0 | 0.00 | 0.00 | 0.00 | 52 | 1008.7 |
| 20260507150732 | 63 | 232 | 1.0 | 3.0 | 0.00 | 0.00 | 0.00 | 50 | 1008.7 |
| 20260507150231 | 63 | 144 | 0.0 | 2.0 | 0.00 | 0.00 | 0.00 | 52 | 1008.7 |
| 20260507150226 | 62 | 71 | 0.0 | 2.0 | 0.00 | 0.00 | 0.00 | 52 | 1008.7 |
| 20260507145456 | 62 | 81 | 0.0 | 2.0 | 0.00 | 0.00 | 0.00 | 52 | 1008.7 |
| 20260507144955 | 62 | 180 | 0.0 | 3.0 | 0.00 | 0.00 | 0.00 | 51 | 1008.7 |
| 20260507144459 | 62 | 252 | 1.0 | 4.0 | 0.00 | 0.00 | 0.00 | 53 | 1008.7 |
| 20260507143954 | 62 | 216 | 1.0 | 4.0 | 0.00 | 0.00 | 0.00 | 52 | 1008.7 |
| 20260507143230 | 62 | 254 | 0.0 | 3.0 | 0.00 | 0.00 | 0.00 | 49 | 1008.7 |
| 20260507142731 | 63 | 162 | 0.0 | 2.0 | 0.00 | 0.00 | 0.00 | 49 | 1008.7 |
| 20260507142230 | 63 | 46 | 1.0 | 3.0 | 0.00 | 0.00 | 0.00 | 49 | 1008.7 |
| 20260507141730 | 64 | 53 | 1.0 | 3.0 | 0.00 | 0.00 | 0.00 | 48 | 1008.7 |
| 20260507141231 | 64 | 98 | 1.0 | 3.0 | 0.00 | 0.00 | 0.00 | 48 | 1008.8 |
| 20260507140958 | 65 | 227 | 1.0 | 2.0 | 0.00 | 0.00 | 0.00 | 45 | 1008.8 |
| 20260507140231 | 66 | 300 | 1.0 | 2.0 | 0.00 | 0.00 | 0.00 | 44 | 1008.8 |
| 20260507135955 | 66 | 188 | 1.0 | 2.0 | 0.00 | 0.00 | 0.00 | 43 | 1009.0 |
| 20260507135230 | 66 | 126 | 0.0 | 2.0 | 0.00 | 0.00 | 0.00 | 48 | 1009.0 |
| 20260507134730 | 65 | 83 | 1.0 | 5.0 | 0.00 | 0.00 | 0.00 | 49 | 1009.0 |
| 20260507134230 | 64 | 240 | 1.0 | 5.0 | 0.00 | 0.00 | 0.00 | 48 | 1009.2 |
| 20260507133731 | 63 | 213 | 1.0 | 3.0 | 0.00 | 0.00 | 0.00 | 53 | 1009.2 |
| 20260507133231 | 62 | 72 | 1.0 | 3.0 | 0.00 | 0.00 | 0.00 | 55 | 1009.2 |
| 20260507132730 | 62 | 24 | 1.0 | 5.0 | 0.00 | 0.00 | 0.00 | 56 | 1009.2 |
| 20260507132230 | 62 | 321 | 1.0 | 5.0 | 0.00 | 0.00 | 0.00 | 56 | 1009.2 |
| 20260507131730 | 62 | 257 | 1.0 | 5.0 | 0.00 | 0.00 | 0.00 | 55 | 1009.2 |
| 20260507131229 | 62 | 32 | 1.0 | 5.0 | 0.00 | 0.00 | 0.00 | 57 | 1009.2 |
| 20260507130957 | 62 | 244 | 1.0 | 5.0 | 0.00 | 0.00 | 0.00 | 57 | 1009.2 |
| 20260507130231 | 62 | 163 | 1.0 | 4.0 | 0.00 | 0.00 | 0.00 | 56 | 1009.2 |
| 20260507125731 | 62 | 177 | 1.0 | 4.0 | 0.00 | 0.00 | 0.00 | 55 | 1009.2 |
| 20260507125231 | 62 | 151 | 1.0 | 3.0 | 0.00 | 0.00 | 0.00 | 55 | 1009.2 |
| 20260507124730 | 62 | 334 | 1.0 | 5.0 | 0.00 | 0.00 | 0.00 | 56 | 1009.2 |
| 20260507124230 | 62 | 261 | 1.0 | 5.0 | 0.00 | 0.00 | 0.00 | 55 | 1009.2 |
| 20260507123730 | 63 | 153 | 2.0 | 5.0 | 0.00 | 0.00 | 0.00 | 55 | 1009.2 |
| 20260507123230 | 63 | 210 | 1.0 | 5.0 | 0.00 | 0.00 | 0.00 | 54 | 1009.2 |
| 20260507122731 | 63 | 243 | 1.0 | 4.0 | 0.00 | 0.00 | 0.00 | 54 | 1009.2 |
| 20260507122231 | 63 | 0 | 1.0 | 4.0 | 0.00 | 0.00 | 0.00 | 55 | 1009.2 |
| 20260507121730 | 63 | 177 | 1.0 | 4.0 | 0.00 | 0.00 | 0.00 | 54 | 1009.2 |
| 20260507121456 | 62 | 331 | 1.0 | 4.0 | 0.00 | 0.00 | 0.00 | 55 | 1009.2 |
| 20260507120730 | 62 | 66 | 2.0 | 5.0 | 0.00 | 0.00 | 0.00 | 57 | 1009.2 |
| 20260507120224 | 62 | 74 | 2.0 | 6.0 | 0.00 | 0.00 | 0.00 | 56 | 1009.2 |
| 20260507115718 | 63 | 215 | 2.0 | 6.0 | 0.00 | 0.00 | 0.00 | 55 | 1009.2 |
| 20260507115434 | 63 | 92 | 2.0 | 5.0 | 0.00 | 0.00 | 0.00 | 55 | 1009.2 |
| 20260507114706 | 63 | 193 | 2.0 | 5.0 | 0.00 | 0.00 | 0.00 | 58 | 1009.2 |
| 20260507114206 | 63 | 234 | 2.0 | 4.0 | 0.00 | 0.00 | 0.00 | 57 | 1009.2 |
| 20260507113931 | 62 | 232 | 2.0 | 4.0 | 0.00 | 0.00 | 0.00 | 57 | 1009.2 |
| 20260507113204 | 62 | 215 | 2.0 | 4.0 | 0.00 | 0.00 | 0.00 | 58 | 1009.2 |
| 20260507112703 | 62 | 217 | 2.0 | 4.0 | 0.00 | 0.00 | 0.00 | 60 | 1009.3 |
| 20260507112203 | 61 | 209 | 1.0 | 4.0 | 0.00 | 0.00 | 0.00 | 58 | 1009.3 |
| 20260507111937 | 61 | 214 | 1.0 | 5.0 | 0.00 | 0.00 | 0.00 | 57 | 1009.3 |
| 20260507111205 | 61 | 244 | 1.0 | 5.0 | 0.00 | 0.00 | 0.00 | 64 | 1009.5 |
| 20260507110924 | 60 | 191 | 1.0 | 4.0 | 0.00 | 0.00 | 0.00 | 62 | 1009.5 |
| 20260507110203 | 60 | 169 | 1.0 | 4.0 | 0.00 | 0.00 | 0.00 | 61 | 1009.5 |
| 20260507105703 | 60 | 179 | 1.0 | 4.0 | 0.00 | 0.00 | 0.00 | 66 | 1009.7 |
| 20260507105203 | 60 | 161 | 1.0 | 4.0 | 0.00 | 0.00 | 0.00 | 66 | 1009.7 |
| 20260507104930 | 59 | 248 | 1.0 | 4.0 | 0.00 | 0.00 | 0.00 | 69 | 1009.7 |
| 20260507104204 | 59 | 146 | 1.0 | 3.0 | 0.00 | 0.00 | 0.00 | 72 | 1009.7 |
| 20260507103704 | 58 | 246 | 1.0 | 4.0 | 0.00 | 0.00 | 0.00 | 74 | 1009.7 |
| 20260507103204 | 58 | 192 | 1.0 | 4.0 | 0.00 | 0.00 | 0.00 | 67 | 1009.7 |
| 20260507102704 | 59 | 232 | 0.0 | 3.0 | 0.00 | 0.00 | 0.00 | 65 | 1009.7 |
| 20260507102202 | 59 | 197 | 0.0 | 3.0 | 0.00 | 0.00 | 0.00 | 67 | 1009.7 |
| 20260507101702 | 59 | 197 | 1.0 | 3.0 | 0.00 | 0.00 | 0.00 | 64 | 1009.7 |
| 20260507101428 | 60 | 76 | 1.0 | 4.0 | 0.00 | 0.00 | 0.00 | 64 | 1009.7 |
| 20260507100701 | 60 | 178 | 1.0 | 4.0 | 0.00 | 0.00 | 0.00 | 64 | 1009.7 |
| 20260507100201 | 60 | 225 | 1.0 | 4.0 | 0.00 | 0.00 | 0.00 | 63 | 1009.7 |
| 20260507095650 | 60 | 309 | 1.0 | 3.0 | 0.00 | 0.00 | 0.00 | 64 | 1009.7 |
| 20260507095148 | 60 | 75 | 1.0 | 4.0 | 0.00 | 0.00 | 0.00 | 66 | 1009.7 |
| 20260507094642 | 60 | 266 | 1.0 | 5.0 | 0.00 | 0.00 | 0.00 | 65 | 1009.7 |
| 20260507094138 | 59 | 75 | 1.0 | 3.0 | 0.00 | 0.00 | 0.00 | 68 | 1009.7 |
| 20260507093638 | 58 | 128 | 1.0 | 3.0 | 0.00 | 0.00 | 0.00 | 68 | 1009.7 |
| 20260507093138 | 58 | 190 | 1.0 | 3.0 | 0.00 | 0.00 | 0.00 | 69 | 1009.7 |
| 20260507092636 | 58 | 59 | 1.0 | 3.0 | 0.00 | 0.00 | 0.00 | 70 | 1009.7 |
| 20260507092400 | 58 | 55 | 1.0 | 3.0 | 0.00 | 0.00 | 0.00 | 70 | 1009.7 |
| 20260507091634 | 58 | 175 | 1.0 | 4.0 | 0.00 | 0.00 | 0.00 | 73 | 1009.7 |
| 20260507091406 | 58 | 190 | 2.0 | 5.0 | 0.00 | 0.00 | 0.00 | 72 | 1009.7 |
| 20260507090635 | 58 | 44 | 1.0 | 5.0 | 0.00 | 0.00 | 0.00 | 75 | 1009.7 |
| 20260507090134 | 57 | 105 | 0.0 | 3.0 | 0.00 | 0.00 | 0.00 | 75 | 1009.7 |
| 20260507085634 | 57 | 191 | 1.0 | 3.0 | 0.00 | 0.00 | 0.00 | 73 | 1009.7 |
| 20260507085133 | 57 | 175 | 1.0 | 3.0 | 0.00 | 0.00 | 0.00 | 74 | 1009.7 |
| 20260507084903 | 56 | 80 | 1.0 | 3.0 | 0.00 | 0.00 | 0.00 | 77 | 1009.7 |
| 20260507084132 | 56 | 56 | 1.0 | 3.0 | 0.00 | 0.00 | 0.00 | 79 | 1009.7 |
| 20260507083631 | 55 | 199 | 1.0 | 4.0 | 0.00 | 0.00 | 0.00 | 79 | 1009.7 |
| 20260507083133 | 55 | 174 | 1.0 | 4.0 | 0.00 | 0.00 | 0.00 | 79 | 1009.7 |
| 20260507082853 | 55 | 189 | 1.0 | 3.0 | 0.00 | 0.00 | 0.00 | 79 | 1009.7 |
| 20260507082132 | 55 | 175 | 1.0 | 3.0 | 0.00 | 0.00 | 0.00 | 82 | 1009.7 |
| 20260507082127 | 55 | 173 | 1.0 | 3.0 | 0.00 | 0.00 | 0.00 | 82 | 1009.7 |
| 20260507081131 | 54 | 192 | 1.0 | 3.0 | 0.00 | 0.00 | 0.00 | 84 | 1009.7 |
| 20260507080630 | 54 | 198 | 1.0 | 3.0 | 0.00 | 0.00 | 0.00 | 85 | 1009.7 |
| 20260507080359 | 53 | 234 | 1.0 | 3.0 | 0.00 | 0.00 | 0.00 | 86 | 1009.7 |
| 20260507075630 | 53 | 200 | 1.0 | 3.0 | 0.00 | 0.00 | 0.00 | 86 | 1009.7 |
| 20260507075400 | 53 | 163 | 0.0 | 2.0 | 0.00 | 0.00 | 0.00 | 86 | 1009.7 |
| 20260507074630 | 53 | 161 | 0.0 | 2.0 | 0.00 | 0.00 | 0.00 | 87 | 1009.7 |
| 20260507074131 | 52 | 175 | 0.0 | 2.0 | 0.00 | 0.00 | 0.00 | 87 | 1009.7 |
| 20260507073851 | 52 | 172 | 0.0 | 2.0 | 0.00 | 0.00 | 0.00 | 88 | 1009.7 |
| 20260507073130 | 52 | 211 | 0.0 | 2.0 | 0.00 | 0.00 | 0.00 | 88 | 1009.7 |
| 20260507072631 | 52 | 207 | 1.0 | 2.0 | 0.00 | 0.00 | 0.00 | 89 | 1009.6 |
| 20260507072131 | 52 | 161 | 0.0 | 2.0 | 0.00 | 0.00 | 0.00 | 89 | 1009.6 |
| 20260507071632 | 52 | 159 | 0.0 | 1.0 | 0.00 | 0.00 | 0.00 | 91 | 1009.6 |
| 20260507071130 | 52 | 128 | 0.0 | 1.0 | 0.00 | 0.00 | 0.00 | 94 | 1009.6 |
| 20260507070630 | 51 | 144 | 0.0 | 0.0 | 0.00 | 0.00 | 0.00 | 94 | 1009.6 |
| 20260507070130 | 51 | 142 | 0.0 | 0.0 | 0.00 | 0.00 | 0.00 | 93 | 1009.6 |
| 20260507065851 | 50 | 226 | 0.0 | 0.0 | 0.00 | 0.00 | 0.00 | 93 | 1009.4 |
| 20260507065400 | 50 | 226 | 0.0 | 0.0 | 0.00 | 0.00 | 0.00 | 93 | 1009.4 |
| 20260507064857 | 50 | 226 | 0.0 | 0.0 | 0.00 | 0.00 | 0.00 | 94 | 1009.4 |
| 20260507064358 | 50 | 226 | 0.0 | 1.0 | 0.00 | 0.00 | 0.00 | 94 | 1009.3 |
| 20260507063630 | 49 | 226 | 0.0 | 1.0 | 0.00 | 0.00 | 0.00 | 94 | 1009.3 |
| 20260507063130 | 49 | 226 | 0.0 | 1.0 | 0.00 | 0.00 | 0.00 | 94 | 1009.3 |
| 20260507062632 | 49 | 226 | 0.0 | 1.0 | 0.00 | 0.00 | 0.00 | 94 | 1009.2 |
| 20260507062131 | 49 | 232 | 0.0 | 1.0 | 0.00 | 0.00 | 0.00 | 95 | 1009.2 |
| 20260507061632 | 49 | 236 | 0.0 | 1.0 | 0.00 | 0.00 | 0.00 | 94 | 1009.2 |
| 20260507061359 | 49 | 236 | 0.0 | 0.0 | 0.00 | 0.00 | 0.00 | 94 | 1009.1 |
| 20260507060630 | 49 | 236 | 0.0 | 0.0 | 0.00 | 0.00 | 0.00 | 94 | 1009.1 |
| 20260507060131 | 49 | 236 | 0.0 | 0.0 | 0.00 | 0.00 | 0.00 | 94 | 1009.1 |
| 20260507055854 | 49 | 236 | 0.0 | 0.0 | 0.00 | 0.00 | 0.00 | 94 | 1009.1 |
| 20260507055130 | 48 | 236 | 0.0 | 0.0 | 0.00 | 0.00 | 0.00 | 94 | 1009.1 |
| 20260507054630 | 48 | 236 | 0.0 | 0.0 | 0.00 | 0.00 | 0.00 | 94 | 1009.1 |
| 20260507054359 | 48 | 236 | 0.0 | 0.0 | 0.00 | 0.00 | 0.00 | 94 | 1008.9 |
| 20260507053631 | 48 | 236 | 0.0 | 0.0 | 0.00 | 0.00 | 0.00 | 94 | 1008.9 |
| 20260507053130 | 48 | 236 | 0.0 | 0.0 | 0.00 | 0.00 | 0.00 | 94 | 1008.9 |
| 20260507052634 | 48 | 236 | 0.0 | 0.0 | 0.00 | 0.00 | 0.00 | 94 | 1008.7 |
| 20260507052132 | 48 | 236 | 0.0 | 0.0 | 0.00 | 0.00 | 0.00 | 94 | 1008.7 |
| 20260507051631 | 48 | 236 | 0.0 | 0.0 | 0.00 | 0.00 | 0.00 | 94 | 1008.7 |
| 20260507051126 | 48 | 236 | 0.0 | 0.0 | 0.00 | 0.00 | 0.00 | 94 | 1008.6 |
| 20260507050617 | 48 | 236 | 0.0 | 0.0 | 0.00 | 0.00 | 0.00 | 94 | 1008.6 |
| 20260507050114 | 48 | 236 | 0.0 | 0.0 | 0.00 | 0.00 | 0.00 | 94 | 1008.6 |
| 20260507045604 | 48 | 236 | 0.0 | 0.0 | 0.00 | 0.00 | 0.00 | 94 | 1008.5 |
| 20260507045328 | 48 | 236 | 0.0 | 0.0 | 0.00 | 0.00 | 0.00 | 94 | 1008.5 |
| 20260507044603 | 48 | 236 | 0.0 | 0.0 | 0.00 | 0.00 | 0.00 | 94 | 1008.5 |
| 20260507044102 | 48 | 236 | 0.0 | 0.0 | 0.00 | 0.00 | 0.00 | 94 | 1008.2 |
| 20260507043602 | 48 | 236 | 0.0 | 1.0 | 0.00 | 0.00 | 0.00 | 94 | 1008.2 |
| 20260507043102 | 48 | 236 | 0.0 | 1.0 | 0.00 | 0.00 | 0.00 | 94 | 1008.2 |
| 20260507042603 | 48 | 248 | 0.0 | 0.0 | 0.00 | 0.00 | 0.00 | 94 | 1008.2 |
| 20260507042327 | 48 | 248 | 0.0 | 0.0 | 0.00 | 0.00 | 0.00 | 94 | 1008.2 |
| 20260507041826 | 48 | 248 | 0.0 | 0.0 | 0.00 | 0.00 | 0.00 | 94 | 1008.2 |
| 20260507041102 | 48 | 248 | 0.0 | 0.0 | 0.00 | 0.00 | 0.00 | 94 | 1008.2 |
| 20260507040826 | 48 | 248 | 0.0 | 0.0 | 0.00 | 0.00 | 0.00 | 94 | 1008.2 |
| 20260507035601 | 48 | 248 | 0.0 | 0.0 | 0.00 | 0.00 | 0.00 | 94 | 1008.2 |
| 20260507035328 | 48 | 248 | 0.0 | 0.0 | 0.00 | 0.00 | 0.00 | 94 | 1008.2 |
| 20260507034828 | 48 | 248 | 0.0 | 0.0 | 0.00 | 0.00 | 0.00 | 94 | 1008.2 |
| 20260507034331 | 48 | 248 | 0.0 | 0.0 | 0.00 | 0.00 | 0.00 | 94 | 1008.2 |
| 20260507033603 | 48 | 248 | 0.0 | 0.0 | 0.00 | 0.00 | 0.00 | 94 | 1008.2 |
| 20260507033102 | 48 | 248 | 0.0 | 1.0 | 0.00 | 0.00 | 0.00 | 94 | 1008.2 |
| 20260507033054 | 48 | 248 | 0.0 | 1.0 | 0.00 | 0.00 | 0.00 | 93 | 1008.1 |
| 20260507032103 | 48 | 248 | 0.0 | 0.0 | 0.00 | 0.00 | 0.00 | 93 | 1008.1 |
| 20260507031829 | 48 | 248 | 0.0 | 0.0 | 0.00 | 0.00 | 0.00 | 93 | 1008.1 |
| 20260507031102 | 48 | 248 | 0.0 | 0.0 | 0.00 | 0.00 | 0.00 | 93 | 1008.1 |
| 20260507030602 | 48 | 248 | 0.0 | 0.0 | 0.00 | 0.00 | 0.00 | 93 | 1008.1 |
| 20260507025602 | 48 | 248 | 0.0 | 0.0 | 0.00 | 0.00 | 0.00 | 93 | 1008.0 |
| 20260507025104 | 48 | 248 | 0.0 | 0.0 | 0.00 | 0.00 | 0.00 | 93 | 1008.0 |
| 20260507024604 | 48 | 248 | 0.0 | 0.0 | 0.00 | 0.00 | 0.00 | 93 | 1008.0 |
| 20260507024104 | 48 | 248 | 0.0 | 0.0 | 0.00 | 0.00 | 0.00 | 93 | 1008.0 |
| 20260507023834 | 48 | 248 | 0.0 | 0.0 | 0.00 | 0.00 | 0.00 | 93 | 1008.0 |
| 20260507023103 | 48 | 248 | 0.0 | 0.0 | 0.00 | 0.00 | 0.00 | 93 | 1008.0 |
| 20260507022604 | 48 | 248 | 0.0 | 0.0 | 0.00 | 0.00 | 0.00 | 93 | 1007.7 |
| 20260507022104 | 48 | 248 | 0.0 | 0.0 | 0.00 | 0.00 | 0.00 | 93 | 1007.7 |
| 20260507021828 | 48 | 248 | 0.0 | 0.0 | 0.00 | 0.00 | 0.00 | 93 | 1007.7 |
| 20260507021329 | 48 | 248 | 0.0 | 0.0 | 0.00 | 0.00 | 0.00 | 93 | 1007.6 |
| 20260507020601 | 48 | 248 | 0.0 | 0.0 | 0.00 | 0.00 | 0.00 | 93 | 1007.6 |
| 20260507020058 | 48 | 248 | 0.0 | 0.0 | 0.00 | 0.00 | 0.00 | 93 | 1007.6 |
| 20260507015552 | 48 | 248 | 0.0 | 0.0 | 0.00 | 0.00 | 0.00 | 93 | 1007.6 |
| 20260507015315 | 48 | 248 | 0.0 | 0.0 | 0.00 | 0.00 | 0.00 | 93 | 1007.6 |
| 20260507014540 | 48 | 248 | 0.0 | 0.0 | 0.00 | 0.00 | 0.00 | 93 | 1007.6 |
| 20260507014306 | 48 | 248 | 0.0 | 1.0 | 0.00 | 0.00 | 0.00 | 93 | 1007.6 |
| 20260507013538 | 48 | 248 | 0.0 | 3.0 | 0.00 | 0.00 | 0.00 | 93 | 1007.6 |
| 20260507013036 | 48 | 248 | 0.0 | 3.0 | 0.00 | 0.00 | 0.00 | 93 | 1007.6 |
| 20260507012534 | 48 | 192 | 0.0 | 1.0 | 0.00 | 0.00 | 0.00 | 92 | 1007.6 |
| 20260507012032 | 48 | 192 | 0.0 | 1.0 | 0.00 | 0.00 | 0.00 | 92 | 1007.6 |
| 20260507011532 | 48 | 192 | 0.0 | 1.0 | 0.00 | 0.00 | 0.00 | 92 | 1007.6 |
| 20260507011031 | 48 | 192 | 0.0 | 0.0 | 0.00 | 0.00 | 0.00 | 92 | 1007.6 |
| 20260507010532 | 48 | 192 | 0.0 | 0.0 | 0.00 | 0.00 | 0.00 | 92 | 1007.6 |
| 20260507010257 | 48 | 192 | 0.0 | 0.0 | 0.00 | 0.00 | 0.00 | 92 | 1007.6 |
| 20260507005529 | 48 | 192 | 0.0 | 0.0 | 0.00 | 0.00 | 0.00 | 92 | 1007.7 |
| 20260507005030 | 48 | 192 | 0.0 | 0.0 | 0.00 | 0.00 | 0.00 | 92 | 1007.7 |
| 20260507004753 | 48 | 192 | 0.0 | 0.0 | 0.00 | 0.00 | 0.00 | 92 | 1007.7 |
| 20260507004029 | 48 | 192 | 0.0 | 0.0 | 0.00 | 0.00 | 0.00 | 92 | 1007.7 |
| 20260507003530 | 48 | 192 | 0.0 | 0.0 | 0.00 | 0.00 | 0.00 | 92 | 1007.7 |
| 20260507003256 | 48 | 192 | 0.0 | 0.0 | 0.00 | 0.00 | 0.00 | 91 | 1007.7 |
| 20260507002530 | 48 | 192 | 0.0 | 0.0 | 0.00 | 0.00 | 0.00 | 91 | 1007.6 |
| 20260507002030 | 48 | 192 | 0.0 | 0.0 | 0.00 | 0.00 | 0.00 | 91 | 1007.6 |
| 20260507001531 | 48 | 192 | 0.0 | 0.0 | 0.00 | 0.00 | 0.00 | 91 | 1007.6 |
| 20260507001031 | 48 | 192 | 0.0 | 0.0 | 0.00 | 0.00 | 0.00 | 90 | 1007.6 |
| 20260507001021 | 48 | 192 | 0.0 | 0.0 | 0.00 | 0.00 | 0.00 | 90 | 1007.6 |
| 20260507000031 | 48 | 192 | 0.0 | 0.0 | 0.00 | 0.00 | 0.00 | 90 | 1007.6 |
| 20260506235530 | 48 | 192 | 0.0 | 0.0 | 0.00 | 0.00 | 0.00 | 90 | 1007.6 |
| 20260506235026 | 48 | 192 | 0.0 | 0.0 | 0.00 | 0.00 | 0.00 | 89 | 1007.6 |
| 20260506234519 | 48 | 192 | 0.0 | 0.0 | 0.00 | 0.00 | 0.00 | 89 | 1007.6 |
| 20260506234014 | 48 | 192 | 0.0 | 0.0 | 0.00 | 0.00 | 0.00 | 89 | 1007.6 |
| 20260506233718 | 48 | 192 | 0.0 | 0.0 | 0.00 | 0.00 | 0.00 | 89 | 1007.6 |
| 20260506232513 | 48 | 192 | 0.0 | 0.0 | 0.00 | 0.00 | 0.00 | 88 | 1007.6 |
| 20260506232013 | 48 | 192 | 0.0 | 0.0 | 0.00 | 0.00 | 0.00 | 88 | 1007.6 |
| 20260506231740 | 48 | 192 | 0.0 | 0.0 | 0.00 | 0.00 | 0.00 | 87 | 1007.6 |
| 20260506231012 | 48 | 192 | 0.0 | 0.0 | 0.00 | 0.00 | 0.00 | 86 | 1007.6 |
| 20260506230512 | 48 | 192 | 0.0 | 0.0 | 0.00 | 0.00 | 0.00 | 86 | 1007.6 |
| 20260506230011 | 48 | 192 | 0.0 | 0.0 | 0.00 | 0.00 | 0.00 | 86 | 1007.6 |
| 20260506225510 | 48 | 192 | 0.0 | 0.0 | 0.00 | 0.00 | 0.00 | 85 | 1007.6 |
| 20260506225010 | 49 | 192 | 0.0 | 0.0 | 0.00 | 0.00 | 0.00 | 85 | 1007.6 |
| 20260506224509 | 49 | 192 | 0.0 | 0.0 | 0.00 | 0.00 | 0.00 | 85 | 1007.6 |
| 20260506224235 | 49 | 192 | 0.0 | 0.0 | 0.00 | 0.00 | 0.00 | 84 | 1007.5 |
| 20260506223506 | 49 | 192 | 0.0 | 0.0 | 0.00 | 0.00 | 0.00 | 83 | 1007.5 |
| 20260506223205 | 49 | 192 | 0.0 | 0.0 | 0.00 | 0.00 | 0.00 | 83 | 1007.5 |
| 20260506222005 | 49 | 192 | 0.0 | 0.0 | 0.00 | 0.00 | 0.00 | 80 | 1007.4 |
| 20260506221504 | 50 | 192 | 0.0 | 0.0 | 0.00 | 0.00 | 0.00 | 80 | 1007.4 |
| 20260506221004 | 50 | 192 | 0.0 | 1.0 | 0.00 | 0.00 | 0.00 | 79 | 1007.1 |
| 20260506220504 | 50 | 192 | 0.0 | 3.0 | 0.00 | 0.00 | 0.00 | 78 | 1007.1 |
| 20260506220003 | 50 | 188 | 1.0 | 3.0 | 0.00 | 0.00 | 0.00 | 77 | 1007.1 |
| 20260506215504 | 50 | 239 | 0.0 | 3.0 | 0.00 | 0.00 | 0.00 | 76 | 1007.0 |
| 20260506215004 | 50 | 265 | 0.0 | 2.0 | 0.00 | 0.00 | 0.00 | 76 | 1007.0 |
| 20260506214730 | 50 | 240 | 0.0 | 1.0 | 0.00 | 0.00 | 0.00 | 75 | 1007.0 |
| 20260506214005 | 50 | 240 | 0.0 | 1.0 | 0.00 | 0.00 | 0.00 | 75 | 1007.0 |
| 20260506213504 | 50 | 240 | 0.0 | 1.0 | 0.00 | 0.00 | 0.00 | 75 | 1007.0 |
| 20260506213005 | 50 | 223 | 0.0 | 1.0 | 0.00 | 0.00 | 0.00 | 74 | 1007.0 |
| 20260506212504 | 50 | 223 | 0.0 | 2.0 | 0.00 | 0.00 | 0.00 | 74 | 1006.9 |
| 20260506212003 | 50 | 217 | 1.0 | 3.0 | 0.00 | 0.00 | 0.00 | 73 | 1006.9 |
| 20260506211504 | 50 | 244 | 1.0 | 3.0 | 0.00 | 0.00 | 0.00 | 74 | 1006.9 |
| 20260506211004 | 50 | 202 | 0.0 | 2.0 | 0.00 | 0.00 | 0.00 | 73 | 1006.5 |
| 20260506210502 | 50 | 232 | 1.0 | 2.0 | 0.00 | 0.00 | 0.00 | 74 | 1006.5 |
| 20260506210004 | 50 | 284 | 0.0 | 2.0 | 0.00 | 0.00 | 0.00 | 74 | 1006.5 |
| 20260506205502 | 50 | 284 | 0.0 | 2.0 | 0.00 | 0.00 | 0.00 | 75 | 1006.5 |
| 20260506205226 | 50 | 279 | 0.0 | 2.0 | 0.00 | 0.00 | 0.00 | 75 | 1006.5 |
| 20260506204502 | 49 | 59 | 0.0 | 0.0 | 0.00 | 0.00 | 0.00 | 75 | 1006.5 |
| 20260506204003 | 49 | 244 | 0.0 | 3.0 | 0.00 | 0.00 | 0.00 | 76 | 1006.4 |
| 20260506203453 | 49 | 250 | 1.0 | 4.0 | 0.00 | 0.00 | 0.00 | 76 | 1006.4 |
| 20260506202951 | 49 | 215 | 0.0 | 4.0 | 0.00 | 0.00 | 0.00 | 76 | 1006.4 |
| 20260506202445 | 49 | 230 | 0.0 | 2.0 | 0.00 | 0.00 | 0.00 | 77 | 1006.3 |
| 20260506201939 | 49 | 184 | 1.0 | 2.0 | 0.00 | 0.00 | 0.00 | 76 | 1006.3 |
| 20260506201433 | 49 | 173 | 1.0 | 2.0 | 0.00 | 0.00 | 0.00 | 77 | 1006.3 |
| 20260506201206 | 49 | 204 | 0.0 | 2.0 | 0.00 | 0.00 | 0.00 | 78 | 1006.1 |
| 20260506200433 | 49 | 292 | 0.0 | 2.0 | 0.00 | 0.00 | 0.00 | 79 | 1006.1 |
| 20260506200200 | 49 | 93 | 0.0 | 1.0 | 0.00 | 0.00 | 0.00 | 79 | 1006.1 |
| 20260506195431 | 49 | 348 | 0.0 | 1.0 | 0.00 | 0.00 | 0.00 | 80 | 1006.0 |
| 20260506194931 | 49 | 331 | 0.0 | 1.0 | 0.00 | 0.00 | 0.00 | 80 | 1006.0 |
| 20260506194914 | 49 | 292 | 0.0 | 1.0 | 0.00 | 0.00 | 0.00 | 81 | 1006.0 |
| 20260506193932 | 49 | 219 | 0.0 | 1.0 | 0.00 | 0.00 | 0.00 | 81 | 1006.0 |
| 20260506193432 | 49 | 205 | 0.0 | 1.0 | 0.00 | 0.00 | 0.00 | 81 | 1006.0 |
| 20260506192932 | 49 | 254 | 0.0 | 0.0 | 0.00 | 0.00 | 0.00 | 81 | 1006.0 |
| 20260506192644 | 49 | 254 | 0.0 | 0.0 | 0.00 | 0.00 | 0.00 | 80 | 1006.0 |
| 20260506192404 | 49 | 254 | 0.0 | 0.0 | 0.00 | 0.00 | 0.00 | 79 | 1006.0 |
| 20260506191425 | 49 | 254 | 0.0 | 0.0 | 0.00 | 0.00 | 0.00 | 79 | 1005.7 |
| 20260506190925 | 49 | 254 | 0.0 | 0.0 | 0.00 | 0.00 | 0.00 | 79 | 1005.7 |
| 20260506190413 | 49 | 254 | 0.0 | 0.0 | 0.00 | 0.00 | 0.00 | 79 | 1005.7 |
| 20260506185911 | 50 | 254 | 0.0 | 0.0 | 0.00 | 0.00 | 0.00 | 79 | 1005.6 |
| 20260506185412 | 50 | 254 | 0.0 | 0.0 | 0.00 | 0.00 | 0.00 | 79 | 1005.6 |
| 20260506184910 | 50 | 254 | 0.0 | 0.0 | 0.00 | 0.00 | 0.00 | 79 | 1005.6 |
| 20260506184409 | 51 | 254 | 0.0 | 0.0 | 0.00 | 0.00 | 0.00 | 79 | 1005.4 |
| 20260506184133 | 51 | 254 | 0.0 | 0.0 | 0.00 | 0.00 | 0.00 | 79 | 1005.4 |
| 20260506183405 | 51 | 254 | 0.0 | 0.0 | 0.00 | 0.00 | 0.00 | 79 | 1005.4 |
| 20260506183136 | 51 | 254 | 0.0 | 0.0 | 0.00 | 0.00 | 0.00 | 80 | 1005.4 |
| 20260506182627 | 52 | 254 | 0.0 | 0.0 | 0.00 | 0.00 | 0.00 | 80 | 1005.4 |
| 20260506181903 | 52 | 254 | 0.0 | 0.0 | 0.00 | 0.00 | 0.00 | 80 | 1005.4 |
| 20260506181850 | 52 | 254 | 0.0 | 0.0 | 0.00 | 0.00 | 0.00 | 80 | 1005.3 |
| 20260506180904 | 52 | 254 | 0.0 | 0.0 | 0.00 | 0.00 | 0.00 | 80 | 1005.3 |
| 20260506180404 | 52 | 254 | 0.0 | 0.0 | 0.00 | 0.00 | 0.00 | 79 | 1005.3 |
| 20260506175904 | 52 | 254 | 0.0 | 0.0 | 0.00 | 0.00 | 0.00 | 79 | 1005.1 |
| 20260506175403 | 52 | 254 | 0.0 | 0.0 | 0.00 | 0.00 | 0.00 | 79 | 1005.1 |
| 20260506174904 | 53 | 254 | 0.0 | 0.0 | 0.00 | 0.00 | 0.00 | 79 | 1005.1 |
| 20260506174403 | 53 | 254 | 0.0 | 0.0 | 0.00 | 0.00 | 0.00 | 78 | 1005.0 |